Location: The Saddle
(36.8333°N, 80.3417°W)
Time: 18:29:49
(UTC-05:00)

A-11 Canister half - Pass Details

Date: 14 December 2023
Orbit: 1512 x 1687 km, 47.2° (Epoch: 26 February)

Event Time Altitude Azimuth Distance (km) Brightness Sun altitude
Rises 18:52:28 0° 179° (S) 4,636 11.7 -20.6°
Reaches altitude 10° 18:56:52 10° 160° (SSE) 3,667 10.9 -21.5°
Enters shadow 19:02:08 17° 125° (SE) 3,155 10.3 -22.5°
Maximum altitude 19:02:17 17° 124° (ESE) 3,155 - -22.6°
Drops below altitude 10° 19:07:45 10° 87° (E) 3,725 - -23.6°
Sets 19:12:14 0° 69° (ENE) 4,742 - -24.5°
